Altus, OK

11:58 PM CDT on August 29, 2016 (GMT -0500)
Altus Air Force Base

Weather History for KLTS - June, 2013

Change the Weather History Date:

Wednesday, June 19, 2013

  Actual Average Record
Temperature  
Mean Temperature 77 °F -  
Max Temperature 85 °F 89 °F 111 °F (2011)
Min Temperature 69 °F 67 °F 66 °F (2014)
Cooling Degree Days 12    
Growing Degree Days 27 (Base 50)    
Moisture  
Dew Point 68 °F    
Average Humidity 85    
Maximum Humidity 100    
Minimum Humidity 43    
Precipitation  
Precipitation 0.23 in - - ()
Sea Level Pressure  
Sea Level Pressure 29.95 in    
Wind  
Wind Speed 9 mph (SE)    
Max Wind Speed 32 mph    
Max Gust Speed 36 mph    
Visibility 10 miles    
Events Rain , Thunderstorm    
Averages and records for this station are not official NWS values.
T = Trace of Precipitation, MM = Missing Value Source: NWS Daily Summary

Daily Weather History Graph

Daily Weather History Graph

Search for Another Location

Airport or City:

Trip Planner

Search our weather history database for the weather conditions in past years. The results will help you decide how hot, cold, wet, or windy it might be!

Date:

Astronomy

Jun. 19, 2013 Rise Set
Actual Time 6:24 AM CDT 8:52 PM CDT
Civil Twilight 5:54 AM CDT 9:22 PM CDT
Nautical Twilight 5:18 AM CDT 9:59 PM CDT
Astronomical Twilight 4:37 AM CDT 10:39 PM CDT
Moon 4:53 PM CDT (6/19) 3:01 AM CDT (6/19)
Length of Visible Light 15h 28m
Length of Day
14h 28m
Waxing Gibbous, 80% of the Moon is Illuminated
Jun 19
Waxing Gibbous
Jun 23
Full
Jun 29
Last Quarter
Jul 8
New
Jul 15
First Quarter

Hourly Weather History & Observations

Time (CDT) Temp. Heat Index Dew Point Humidity Pressure Visibility Wind Dir Wind Speed Gust Speed Precip Events Conditions
12:58 AM 71.2 °F - 67.6 °F 88% 29.95 in 10.0 mi East 5.8 mph - N/A   Clear
1:58 AM 70.2 °F - 67.8 °F 92% 29.94 in 10.0 mi SE 5.8 mph - N/A   Clear
2:58 AM 70.0 °F - 68.9 °F 96% 29.94 in 10.0 mi East 4.6 mph - N/A   Clear
3:58 AM 69.1 °F - 69.1 °F 100% 29.93 in 10.0 mi ESE 6.9 mph - N/A   Clear
4:58 AM 69.4 °F - 69.4 °F 100% 29.95 in 10.0 mi NE 3.5 mph - N/A   Overcast
5:58 AM 69.8 °F - 69.8 °F 100% 29.90 in 10.0 mi ESE 12.7 mph - N/A   Scattered Clouds
6:58 AM 69.1 °F - 69.1 °F 100% 29.95 in 10.0 mi ESE 4.6 mph - N/A   Scattered Clouds
7:38 AM 71.6 °F - 71.6 °F 100% 29.99 in 10.0 mi ESE 5.8 mph - N/A   Mostly Cloudy
7:58 AM 72.0 °F - 69.6 °F 92% 29.98 in 10.0 mi ENE 5.8 mph - N/A   Overcast
8:28 AM 73.4 °F - 69.8 °F 88% 30.04 in 10.0 mi ENE 8.1 mph - N/A   Mostly Cloudy
8:58 AM 73.2 °F - 69.8 °F 89% 30.02 in 10.0 mi NNE 12.7 mph - N/A   Scattered Clouds
9:15 AM 73.4 °F - 69.8 °F 88% 30.06 in 10.0 mi NE 12.7 mph - N/A Rain Light Rain
9:19 AM 73.4 °F - 69.8 °F 88% 30.05 in 10.0 mi NE 12.7 mph - N/A Rain Light Rain
9:41 AM 71.6 °F - 71.6 °F 100% 30.04 in 10.0 mi NE 9.2 mph - N/A   Mostly Cloudy
9:58 AM 72.3 °F - 71.6 °F 98% 30.00 in 10.0 mi NE 9.2 mph - 0.00 in   Scattered Clouds
10:38 AM 73.4 °F - 69.8 °F 88% 30.03 in 10.0 mi ESE 4.6 mph - N/A Rain Light Rain
10:49 AM 73.4 °F - 71.6 °F 94% 30.02 in 10.0 mi SE 5.8 mph - N/A Rain Light Rain
10:58 AM 72.7 °F - 71.2 °F 95% 29.99 in 10.0 mi SSE 8.1 mph - 0.01 in Rain Light Rain
11:03 AM 73.4 °F - 71.6 °F 94% 30.02 in 10.0 mi SSE 9.2 mph - N/A Rain Light Rain
11:12 AM 71.6 °F - 71.6 °F 100% 30.03 in 10.0 mi SW 5.8 mph - N/A Rain Light Rain
11:27 AM 73.4 °F - 73.4 °F 100% 30.06 in 10.0 mi WSW 9.2 mph - N/A Rain , Thunderstorm Light Thunderstorms and Rain
11:30 AM 73.4 °F - 73.4 °F 100% 30.05 in 10.0 mi WSW 9.2 mph - N/A Rain Light Rain
11:58 AM 72.1 °F - 71.8 °F 99% 30.01 in 6.0 mi SW 9.2 mph - 0.05 in Rain , Thunderstorm Light Thunderstorms and Rain
12:15 PM 71.6 °F - 71.6 °F 100% 30.03 in 6.0 mi SW 15.0 mph - N/A Rain Light Rain
12:27 PM 71.6 °F - 69.8 °F 94% 30.05 in 9.0 mi SW 17.3 mph - N/A Rain , Thunderstorm Light Thunderstorms and Rain
12:58 PM 70.7 °F - 68.4 °F 92% 30.01 in 8.0 mi SW 25.3 mph - 0.13 in Rain , Thunderstorm Light Thunderstorms and Rain
1:50 PM 69.8 °F - 64.4 °F 83% 29.92 in 10.0 mi SSW 25.3 mph 35.7 mph N/A   Mostly Cloudy
1:58 PM 70.3 °F - 63.9 °F 80% 29.88 in 10.0 mi South 32.2 mph 35.7 mph 0.03 in   Mostly Cloudy
2:17 PM 71.6 °F - 64.4 °F 78% 29.84 in 10.0 mi South 18.4 mph 32.2 mph N/A   Clear
2:33 PM 73.4 °F - 62.6 °F 69% 29.86 in 10.0 mi SE 12.7 mph 34.5 mph N/A   Partly Cloudy
2:58 PM 75.4 °F - 63.5 °F 66% 29.83 in 10.0 mi SSE 9.2 mph 25.3 mph 0.01 in   Scattered Clouds
3:58 PM 80.6 °F 82.0 °F 63.7 °F 56% 29.83 in 10.0 mi Variable 1.2 mph - N/A   Partly Cloudy
4:58 PM 84.6 °F 85.0 °F 61.5 °F 46% 29.86 in 10.0 mi East 5.8 mph - N/A   Clear
5:58 PM 85.6 °F 85.7 °F 60.8 °F 43% 29.85 in 10.0 mi East 9.2 mph - N/A   Clear
6:58 PM 85.3 °F 85.2 °F 60.6 °F 43% 29.85 in 10.0 mi East 13.8 mph - N/A   Clear
7:58 PM 81.0 °F 82.6 °F 64.4 °F 57% 29.88 in 10.0 mi SE 9.2 mph - N/A   Partly Cloudy
8:58 PM 75.2 °F - 67.1 °F 76% 29.86 in 10.0 mi ESE 8.1 mph - N/A   Clear
9:01 PM 75.2 °F - 68.0 °F 78% 29.90 in 10.0 mi SE 10.4 mph - N/A Rain Light Rain
9:18 PM 75.2 °F - 66.2 °F 73% 29.90 in 10.0 mi ESE 8.1 mph - N/A   Clear
9:58 PM 75.0 °F - 68.7 °F 81% 29.88 in 10.0 mi ESE 9.2 mph - 0.00 in   Clear
10:58 PM 76.5 °F - 72.3 °F 87% 29.90 in 10.0 mi ESE 12.7 mph - N/A   Mostly Cloudy
11:58 PM 74.8 °F - 70.5 °F 86% 29.88 in 10.0 mi SE 13.8 mph - N/A   Clear